Overview Statistics Trail Chart Weather Telemetry Raw packets
 

This is the latest recevied weather packets stored in our database for station/object K5SVV. If no packets are shown the sender has not sent any weather packets the latest 10 day(s).

<< 70 71 72 73 74 75 76 >>
Time Temp. Humidity Pressure Rain* Wind** Luminosity Snow
1788185120 27.78° C 74% 1016.6 hPa 0 mm - 269 W/m² -
1788184815 27.78° C 74% 1016.6 hPa 0 mm - 251 W/m² -
1788184513 27.78° C 76% 1016.5 hPa 0 mm - 151 W/m² -
1788184208 27.22° C 76% 1016.3 hPa 0 mm - 216 W/m² -
1788183904 27.22° C 77% 1016.3 hPa 0 mm - 196 W/m² -
1788183603 27.22° C 78% 1016.3 hPa 0 mm - 180 W/m² -
1788183299 26.67° C 78% 1016.3 hPa 0 mm - 169 W/m² -
1788182993 26.67° C 79% 1016.4 hPa 0 mm - 145 W/m² -
1788182689 26.67° C 80% 1016.2 hPa 0 mm - 141 W/m² -
1788182388 26.11° C 80% 1016 hPa 0 mm - 123 W/m² -
1788182083 26.11° C 81% 1016.2 hPa 0 mm - 112 W/m² -
1788181778 26.11° C 81% 1016.2 hPa 0 mm - 89 W/m² -
1788181474 25.56° C 82% 1016 hPa 0 mm - 86 W/m² -
1788181168 25.56° C 82% 1016 hPa 0 mm - 70 W/m² -
1788180868 25.56° C 83% 1016 hPa 0 mm - 46 W/m² -
1788180564 25° C 83% 1016 hPa 0 mm - 40 W/m² -
1788180259 25° C 83% 1016 hPa 0 mm - 37 W/m² -
1788179955 25° C 83% 1015.9 hPa 0 mm - 29 W/m² -
1788179653 25° C 82% 1015.8 hPa 0 mm - 25 W/m² -
1788179349 25° C 82% 1015.9 hPa 0 mm - 21 W/m² -
1788179044 25° C 82% 1015.5 hPa 0 mm - 16 W/m² -
1788178739 25° C 82% 1015.4 hPa 0 mm - 12 W/m² -
1788178435 25° C 81% 1015.5 hPa 0 mm - 8 W/m² -
1788178130 25° C 81% 1015.3 hPa 0 mm - 5 W/m² -
1788177824 25.56° C 80% 1015.4 hPa 0 mm - 2 W/m² -

* Rain latest hour (hover to see other rain measurements)
** Current wind speed in m/s (hover to see current wind gust speed)